This is the latest recevied weather packets stored in our database for station/object OK2JV-13. If no packets are shown the sender has not sent any weather packets the latest 10 day(s).
| Time | Temp. | Humidity | Pressure | Rain* | Wind** | Luminosity | Snow |
|---|---|---|---|---|---|---|---|
| 1787909863 | 22.78° C | 44% | 1014.1 hPa | - | - | - | - |
| 1787909259 | 22.78° C | 45% | 1014.3 hPa | - | - | - | - |
| 1787908655 | 22.78° C | 46% | 1014.3 hPa | - | - | - | - |
| 1787908050 | 22.22° C | 50% | 1014.6 hPa | - | - | - | - |
| 1787907446 | 22.78° C | 45% | 1014.3 hPa | - | - | - | - |
| 1787906842 | 22.78° C | 46% | 1014.4 hPa | - | - | - | - |
| 1787906239 | 22.78° C | 46% | 1014.5 hPa | - | - | - | - |
| 1787905634 | 22.22° C | 50% | 1014.7 hPa | - | - | - | - |
| 1787905030 | 21.67° C | 52% | 1014.7 hPa | - | - | - | - |
| 1787904426 | 21.11° C | 52% | 1014.7 hPa | - | - | - | - |
| 1787903824 | 21.11° C | 52% | 1014.8 hPa | - | - | - | - |
| 1787903217 | 20.56° C | 54% | 1014.8 hPa | - | - | - | - |
| 1787902613 | 20° C | 55% | 1014.9 hPa | - | - | - | - |
| 1787902009 | 19.44° C | 55% | 1015 hPa | - | - | - | - |
| 1787901407 | 18.89° C | 55% | 1015.1 hPa | - | - | - | - |
| 1787900800 | 18.89° C | 56% | 1014.9 hPa | - | - | - | - |
| 1787900197 | 18.33° C | 56% | 1014.6 hPa | - | - | - | - |
| 1787899593 | 18.33° C | 57% | 1014.7 hPa | - | - | - | - |
| 1787898988 | 18.33° C | 57% | 1014.7 hPa | - | - | - | - |
| 1787898383 | 18.33° C | 58% | 1014.5 hPa | - | - | - | - |
| 1787897780 | 17.78° C | 58% | 1014.6 hPa | - | - | - | - |
| 1787897174 | 17.78° C | 59% | 1014.4 hPa | - | - | - | - |
| 1787896569 | 17.78° C | 59% | 1014.5 hPa | - | - | - | - |
| 1787895964 | 17.78° C | 59% | 1014.6 hPa | - | - | - | - |
| 1787895361 | 17.78° C | 59% | 1014.9 hPa | - | - | - | - |
* Rain since midnight (hover to see other rain measurements)
** Current wind speed in m/s (hover to see current wind gust speed)